Location: Asheville, NC
(35.6000°N, 82.5500°W)
Time: 18:43:23
(UTC-05:00)

Vanguard 1 Rocket - Pass Details

Date: 10 February 2018
Orbit: 655 x 4222 km, 34.3° (Epoch: 16 February)

Event Time Altitude Azimuth Distance (km) Brightness Sun altitude
Rises 05:18:02 0° 275° (W) 8,453 - -25.7°
Reaches altitude 10° 05:24:11 10° 275° (W) 7,293 - -24.5°
Exits shadow 05:33:01 28° 274° (W) 5,508 10.7 -22.7°
Maximum altitude 05:48:00 82° 192° (SSW) 2,911 9.8 -19.6°
Drops below altitude 10° 06:00:36 10° 107° (ESE) 4,234 12.1 -17.1°
Sets 06:03:09 0° 106° (ESE) 4,894 12.8 -16.5°
